Погода в Уотчете

Великобритания     51°10′58″N   3°19′37″W
темп.,
°C
ветер,
м/с
пор.,
м/с
влажн.,
%
обл.,
%
осадки,
мм/ч
давл.,
гПа
погр.,
м
7 марта, вс
вс700:00+4всв34684 0.0 1031381
03:00+3св336831 0.0 1030409
06:00+3св226916 0.0 1029396
09:00+3всв21650 0.0 1029360
12:00+3зсз11670 0.0 1028171
15:00+4з33690 0.0 1026183
18:00+6зсз44652 0.0 1026680
21:00+6ссз336919 0.0 1027369
8 марта, пн
пн800:00+5св22699 0.0 1026211
03:00+4ссв11710 0.0 1025191
06:00+4зсз11700 0.0 1025219
09:00+4зюз12717 0.0 1026249
12:00+5зсз457951 0.0 1025346
15:00+5зсз678134 0.0 1024336
18:00+6зсз787427 0.0 1023387
21:00+6зсз787519 0.0 1024519
9 марта, вт
вт900:00+6з467510 0.0 1023469
03:00+6зюз568173 0.0 1022365
06:00+5зюз578048 0.0 1022372
09:00+5юз457636 0.0 1022291
12:00+7юз237636 0.0 1020159
15:00+9юз4473100 0.0 101965
18:00+7ююз61079100 0.0 1017608
21:00+6ююз81380100 0.0 1016818
10 марта, ср
ср1000:00+7ююз131983100 0.2 1013724
03:00+8ююз122088100 0.7 1010638
06:00+9ююз132188100 2.4 1008508
09:00+10ююз91490100 0.6 1007209
12:00+11ююз91391100 1.4 1004161
15:00+11зюз91289100 1.3 1002135
18:00+11юз111886100 1.4 1000280
21:00+11зюз111985100 0.4 999368
11 марта, чт
чт1100:00+9зюз132277100 0.6 9981078
03:00+8зюз16247875 0.2 9971286
06:00+8зюз17257159 0.3 9991498
09:00+8зюз16237319 0.3 10011445
12:00+8з14197237 0.8 10031150
15:00+8з15216836 0.4 10041389
18:00+8з15216826 0.5 10061431
21:00+8з1318704 0.1 10081134